owner,sensor,date,latitude,longitude,air_temperature,qcFlag 
COMPS,ioos:station:USF.COMPS:C12:1,2015-12-01T00:05:00Z,27.4980,-83.7220,17.95,1111122 
COMPS,ioos:station:USF.COMPS:C12:1,2015-12-01T00:35:00Z,27.4980,-83.7220,18.2,1111122 
COMPS,ioos:station:USF.COMPS:C12:1,2015-12-01T01:05:00Z,27.4980,-83.7220,18.09,1111122 
COMPS,ioos:station:USF.COMPS:C12:1,2015-12-01T01:35:00Z,27.4980,-83.7220,18.82,1111122 
COMPS,ioos:station:USF.COMPS:C12:1,2015-12-01T05:05:00Z,27.4980,-83.7220,17.28,1111122 
COMPS,ioos:station:USF.COMPS:C12:1,2015-12-01T05:35:00Z,27.4980,-83.7220,17.16,1111122 
COMPS,ioos:station:USF.COMPS:C12:1,2015-12-01T06:05:00Z,27.4980,-83.7220,17.02,1111122 
COMPS,ioos:station:USF.COMPS:C12:1,2015-12-01T06:35:00Z,27.4980,-83.7220,16.86,1111122 
COMPS,ioos:station:USF.COMPS:C12:1,2015-12-01T07:05:00Z,27.4980,-83.7220,16.98,1111122 
COMPS,ioos:station:USF.COMPS:C12:1,2015-12-01T07:35:00Z,27.4980,-83.7220,16.83,1111122 
COMPS,ioos:station:USF.COMPS:C12:1,2015-12-01T08:05:00Z,27.4980,-83.7220,16.85,1111122 
COMPS,ioos:station:USF.COMPS:C12:1,2015-12-01T08:35:00Z,27.4980,-83.7220,16.83,1111122 
COMPS,ioos:station:USF.COMPS:C12:1,2015-12-01T09:05:00Z,27.4980,-83.7220,16.86,1111122 
COMPS,ioos:station:USF.COMPS:C12:1,2015-12-01T09:35:00Z,27.4980,-83.7220,16.87,1111122 
COMPS,ioos:station:USF.COMPS:C12:1,2015-12-01T10:05:00Z,27.4980,-83.7220,16.92,1111122 
COMPS,ioos:station:USF.COMPS:C12:1,2015-12-01T10:35:00Z,27.4980,-83.7220,17.2,1111122 
COMPS,ioos:station:USF.COMPS:C12:1,2015-12-01T11:05:00Z,27.4980,-83.7220,17.46,1111122 
COMPS,ioos:station:USF.COMPS:C12:1,2015-12-01T11:35:00Z,27.4980,-83.7220,17.38,1111122 
COMPS,ioos:station:USF.COMPS:C12:1,2015-12-01T12:05:00Z,27.4980,-83.7220,17.65,1111122 
COMPS,ioos:station:USF.COMPS:C12:1,2015-12-01T12:35:00Z,27.4980,-83.7220,17.3,1111122 
COMPS,ioos:station:USF.COMPS:C12:1,2015-12-01T13:05:00Z,27.4980,-83.7220,17.26,1111122 
COMPS,ioos:station:USF.COMPS:C12:1,2015-12-01T13:35:00Z,27.4980,-83.7220,17.43,1111122 
COMPS,ioos:station:USF.COMPS:C12:1,2015-12-01T14:05:00Z,27.4980,-83.7220,17.22,1111122 
COMPS,ioos:station:USF.COMPS:C12:1,2015-12-01T14:35:00Z,27.4980,-83.7220,17.11,1111122 
COMPS,ioos:station:USF.COMPS:C12:1,2015-12-01T15:05:00Z,27.4980,-83.7220,17.17,1111122 
COMPS,ioos:station:USF.COMPS:C12:1,2015-12-01T15:35:00Z,27.4980,-83.7220,17.19,1111122 
COMPS,ioos:station:USF.COMPS:C12:1,2015-12-01T16:05:00Z,27.4980,-83.7220,17.22,1111122 
COMPS,ioos:station:USF.COMPS:C12:1,2015-12-01T16:35:00Z,27.4980,-83.7220,17.15,1111122 
COMPS,ioos:station:USF.COMPS:C12:1,2015-12-01T17:05:00Z,27.4980,-83.7220,17.08,1111122 
COMPS,ioos:station:USF.COMPS:C12:1,2015-12-01T17:35:00Z,27.4980,-83.7220,17.1,1111122 
COMPS,ioos:station:USF.COMPS:C12:1,2015-12-01T18:05:00Z,27.4980,-83.7220,16.94,1111122 
COMPS,ioos:station:USF.COMPS:C12:1,2015-12-01T18:35:00Z,27.4980,-83.7220,16.85,1111122 
COMPS,ioos:station:USF.COMPS:C12:1,2015-12-01T19:05:00Z,27.4980,-83.7220,16.9,1111122 
COMPS,ioos:station:USF.COMPS:C12:1,2015-12-01T19:35:00Z,27.4980,-83.7220,16.98,1111122 
COMPS,ioos:station:USF.COMPS:C12:1,2015-12-01T20:05:00Z,27.4980,-83.7220,16.99,1111122 
COMPS,ioos:station:USF.COMPS:C12:1,2015-12-01T20:35:00Z,27.4980,-83.7220,16.92,1111122 
COMPS,ioos:station:USF.COMPS:C12:1,2015-12-01T21:05:00Z,27.4980,-83.7220,17.09,1111122 
COMPS,ioos:station:USF.COMPS:C12:1,2015-12-01T21:35:00Z,27.4980,-83.7220,16.98,1111122 
COMPS,ioos:station:USF.COMPS:C12:1,2015-12-01T22:05:00Z,27.4980,-83.7220,16.8,1111122 
COMPS,ioos:station:USF.COMPS:C12:1,2015-12-01T22:35:00Z,27.4980,-83.7220,16.97,1111122 
COMPS,ioos:station:USF.COMPS:C12:1,2015-12-01T23:05:00Z,27.4980,-83.7220,16.92,1111122 
COMPS,ioos:station:USF.COMPS:C12:1,2015-12-01T23:35:00Z,27.4980,-83.7220,16.86,1111122 
COMPS,ioos:station:USF.COMPS:C12:1,2015-12-02T00:05:00Z,27.4980,-83.7220,17.0,1111122 
COMPS,ioos:station:USF.COMPS:C12:1,2015-12-02T00:35:00Z,27.4980,-83.7220,16.98,1111122 
COMPS,ioos:station:USF.COMPS:C12:1,2015-12-02T01:05:00Z,27.4980,-83.7220,17.04,1111122 
COMPS,ioos:station:USF.COMPS:C12:1,2015-12-02T01:35:00Z,27.4980,-83.7220,16.86,1111122 
COMPS,ioos:station:USF.COMPS:C12:1,2015-12-02T05:05:00Z,27.4980,-83.7220,16.98,1111122 
COMPS,ioos:station:USF.COMPS:C12:1,2015-12-02T05:35:00Z,27.4980,-83.7220,16.94,1111122 
COMPS,ioos:station:USF.COMPS:C12:1,2015-12-02T06:05:00Z,27.4980,-83.7220,16.95,1111122 
COMPS,ioos:station:USF.COMPS:C12:1,2015-12-02T06:35:00Z,27.4980,-83.7220,16.86,1111122 
COMPS,ioos:station:USF.COMPS:C12:1,2015-12-02T07:05:00Z,27.4980,-83.7220,16.65,1111122 
COMPS,ioos:station:USF.COMPS:C12:1,2015-12-02T07:35:00Z,27.4980,-83.7220,16.8,1111122 
COMPS,ioos:station:USF.COMPS:C12:1,2015-12-02T08:05:00Z,27.4980,-83.7220,16.84,1111122 
COMPS,ioos:station:USF.COMPS:C12:1,2015-12-02T08:35:00Z,27.4980,-83.7220,16.7,1111122 
COMPS,ioos:station:USF.COMPS:C12:1,2015-12-02T09:05:00Z,27.4980,-83.7220,16.72,1111122 
COMPS,ioos:station:USF.COMPS:C12:1,2015-12-02T09:35:00Z,27.4980,-83.7220,16.8,1111122 
COMPS,ioos:station:USF.COMPS:C12:1,2015-12-02T10:05:00Z,27.4980,-83.7220,16.89,1111122 
COMPS,ioos:station:USF.COMPS:C12:1,2015-12-02T10:35:00Z,27.4980,-83.7220,16.99,1111122 
COMPS,ioos:station:USF.COMPS:C12:1,2015-12-02T11:05:00Z,27.4980,-83.7220,17.02,1111122 
COMPS,ioos:station:USF.COMPS:C12:1,2015-12-02T11:35:00Z,27.4980,-83.7220,17.09,1111122 
COMPS,ioos:station:USF.COMPS:C12:1,2015-12-02T12:05:00Z,27.4980,-83.7220,17.2,1111122 
COMPS,ioos:station:USF.COMPS:C12:1,2015-12-02T12:35:00Z,27.4980,-83.7220,17.29,1111122 
COMPS,ioos:station:USF.COMPS:C12:1,2015-12-02T13:05:00Z,27.4980,-83.7220,17.46,1111122 
COMPS,ioos:station:USF.COMPS:C12:1,2015-12-02T13:35:00Z,27.4980,-83.7220,17.53,1111122 
COMPS,ioos:station:USF.COMPS:C12:1,2015-12-02T14:05:00Z,27.4980,-83.7220,17.49,1111122 
COMPS,ioos:station:USF.COMPS:C12:1,2015-12-02T14:35:00Z,27.4980,-83.7220,17.47,1111122 
COMPS,ioos:station:USF.COMPS:C12:1,2015-12-02T15:05:00Z,27.4980,-83.7220,17.6,1111122 
COMPS,ioos:station:USF.COMPS:C12:1,2015-12-02T15:35:00Z,27.4980,-83.7220,17.53,1111122 
COMPS,ioos:station:USF.COMPS:C12:1,2015-12-02T16:05:00Z,27.4980,-83.7220,17.61,1111122 
COMPS,ioos:station:USF.COMPS:C12:1,2015-12-02T16:35:00Z,27.4980,-83.7220,17.61,1111122 
COMPS,ioos:station:USF.COMPS:C12:1,2015-12-02T17:05:00Z,27.4980,-83.7220,17.55,1111122 
COMPS,ioos:station:USF.COMPS:C12:1,2015-12-02T17:35:00Z,27.4980,-83.7220,17.51,1111122 
COMPS,ioos:station:USF.COMPS:C12:1,2015-12-02T18:05:00Z,27.4980,-83.7220,17.49,1111122 
COMPS,ioos:station:USF.COMPS:C12:1,2015-12-02T18:35:00Z,27.4980,-83.7220,17.56,1111122 
COMPS,ioos:station:USF.COMPS:C12:1,2015-12-02T19:05:00Z,27.4980,-83.7220,17.52,1111122 
COMPS,ioos:station:USF.COMPS:C12:1,2015-12-02T19:35:00Z,27.4980,-83.7220,17.5,1111122 
COMPS,ioos:station:USF.COMPS:C12:1,2015-12-02T20:05:00Z,27.4980,-83.7220,17.52,1111122 
COMPS,ioos:station:USF.COMPS:C12:1,2015-12-02T20:35:00Z,27.4980,-83.7220,17.55,1111122 
COMPS,ioos:station:USF.COMPS:C12:1,2015-12-02T21:05:00Z,27.4980,-83.7220,17.5,1111122 
COMPS,ioos:station:USF.COMPS:C12:1,2015-12-02T21:35:00Z,27.4980,-83.7220,17.58,1111122 
COMPS,ioos:station:USF.COMPS:C12:1,2015-12-02T22:05:00Z,27.4980,-83.7220,17.48,1111122 
COMPS,ioos:station:USF.COMPS:C12:1,2015-12-02T22:35:00Z,27.4980,-83.7220,17.49,1111122 
COMPS,ioos:station:USF.COMPS:C12:1,2015-12-02T23:05:00Z,27.4980,-83.7220,16.3,1111122 
COMPS,ioos:station:USF.COMPS:C12:1,2015-12-02T23:35:00Z,27.4980,-83.7220,16.26,1111122 
COMPS,ioos:station:USF.COMPS:C12:1,2015-12-03T00:05:00Z,27.4980,-83.7220,16.07,1111122 
COMPS,ioos:station:USF.COMPS:C12:1,2015-12-03T00:35:00Z,27.4980,-83.7220,16.35,1111122 
COMPS,ioos:station:USF.COMPS:C12:1,2015-12-03T05:05:00Z,27.4980,-83.7220,16.3,1111122 
COMPS,ioos:station:USF.COMPS:C12:1,2015-12-03T05:35:00Z,27.4980,-83.7220,16.42,1111122 
COMPS,ioos:station:USF.COMPS:C12:1,2015-12-03T06:05:00Z,27.4980,-83.7220,16.68,1111122 
COMPS,ioos:station:USF.COMPS:C12:1,2015-12-03T06:35:00Z,27.4980,-83.7220,16.69,1111122 
COMPS,ioos:station:USF.COMPS:C12:1,2015-12-03T07:05:00Z,27.4980,-83.7220,16.92,1111122 
COMPS,ioos:station:USF.COMPS:C12:1,2015-12-03T07:35:00Z,27.4980,-83.7220,16.61,1111122 
COMPS,ioos:station:USF.COMPS:C12:1,2015-12-03T08:05:00Z,27.4980,-83.7220,16.33,1111122 
COMPS,ioos:station:USF.COMPS:C12:1,2015-12-03T08:35:00Z,27.4980,-83.7220,16.18,1111122 
COMPS,ioos:station:USF.COMPS:C12:1,2015-12-03T09:05:00Z,27.4980,-83.7220,15.7,1111122 
COMPS,ioos:station:USF.COMPS:C12:1,2015-12-03T09:35:00Z,27.4980,-83.7220,15.7,1111122 
COMPS,ioos:station:USF.COMPS:C12:1,2015-12-03T10:05:00Z,27.4980,-83.7220,15.76,1111122 
COMPS,ioos:station:USF.COMPS:C12:1,2015-12-03T10:35:00Z,27.4980,-83.7220,15.77,1111122 
COMPS,ioos:station:USF.COMPS:C12:1,2015-12-03T11:05:00Z,27.4980,-83.7220,15.74,1111122 
COMPS,ioos:station:USF.COMPS:C12:1,2015-12-03T11:35:00Z,27.4980,-83.7220,15.7,1111122 
COMPS,ioos:station:USF.COMPS:C12:1,2015-12-03T12:05:00Z,27.4980,-83.7220,15.45,1111122 
COMPS,ioos:station:USF.COMPS:C12:1,2015-12-03T12:35:00Z,27.4980,-83.7220,15.36,1111122 
COMPS,ioos:station:USF.COMPS:C12:1,2015-12-03T13:05:00Z,27.4980,-83.7220,15.37,1111122 
COMPS,ioos:station:USF.COMPS:C12:1,2015-12-03T13:35:00Z,27.4980,-83.7220,15.13,1111122 
COMPS,ioos:station:USF.COMPS:C12:1,2015-12-03T14:05:00Z,27.4980,-83.7220,15.15,1111122 
COMPS,ioos:station:USF.COMPS:C12:1,2015-12-03T14:35:00Z,27.4980,-83.7220,15.27,1111122 
COMPS,ioos:station:USF.COMPS:C12:1,2015-12-03T15:05:00Z,27.4980,-83.7220,15.24,1111122 
COMPS,ioos:station:USF.COMPS:C12:1,2015-12-03T15:35:00Z,27.4980,-83.7220,15.01,1111122 
COMPS,ioos:station:USF.COMPS:C12:1,2015-12-03T16:05:00Z,27.4980,-83.7220,14.95,1111122 
COMPS,ioos:station:USF.COMPS:C12:1,2015-12-03T16:35:00Z,27.4980,-83.7220,14.83,1111122 
COMPS,ioos:station:USF.COMPS:C12:1,2015-12-03T17:05:00Z,27.4980,-83.7220,14.52,1111122 
COMPS,ioos:station:USF.COMPS:C12:1,2015-12-03T17:35:00Z,27.4980,-83.7220,14.48,1111122 
COMPS,ioos:station:USF.COMPS:C12:1,2015-12-03T18:05:00Z,27.4980,-83.7220,14.54,1111122 
COMPS,ioos:station:USF.COMPS:C12:1,2015-12-03T18:35:00Z,27.4980,-83.7220,14.65,1111122 
COMPS,ioos:station:USF.COMPS:C12:1,2015-12-03T19:05:00Z,27.4980,-83.7220,14.34,1111122 
COMPS,ioos:station:USF.COMPS:C12:1,2015-12-03T19:35:00Z,27.4980,-83.7220,14.11,1111122 
COMPS,ioos:station:USF.COMPS:C12:1,2015-12-03T20:05:00Z,27.4980,-83.7220,14.37,1111122 
COMPS,ioos:station:USF.COMPS:C12:1,2015-12-03T20:35:00Z,27.4980,-83.7220,14.54,1111122 
COMPS,ioos:station:USF.COMPS:C12:1,2015-12-03T21:05:00Z,27.4980,-83.7220,14.16,1111122 
COMPS,ioos:station:USF.COMPS:C12:1,2015-12-03T21:35:00Z,27.4980,-83.7220,14.6,1111122 
COMPS,ioos:station:USF.COMPS:C12:1,2015-12-03T22:05:00Z,27.4980,-83.7220,14.35,1111122 
COMPS,ioos:station:USF.COMPS:C12:1,2015-12-03T22:35:00Z,27.4980,-83.7220,14.69,1111122 
COMPS,ioos:station:USF.COMPS:C12:1,2015-12-03T23:05:00Z,27.4980,-83.7220,14.42,1111122 
COMPS,ioos:station:USF.COMPS:C12:1,2015-12-03T23:35:00Z,27.4980,-83.7220,14.43,1111122 
COMPS,ioos:station:USF.COMPS:C12:1,2015-12-04T01:05:00Z,27.4980,-83.7220,16.21,1111122 
COMPS,ioos:station:USF.COMPS:C12:1,2015-12-04T01:35:00Z,27.4980,-83.7220,16.75,1111122 
COMPS,ioos:station:USF.COMPS:C12:1,2015-12-04T05:05:00Z,27.4980,-83.7220,16.32,1111122 
COMPS,ioos:station:USF.COMPS:C12:1,2015-12-04T05:35:00Z,27.4980,-83.7220,16.75,1111122 
COMPS,ioos:station:USF.COMPS:C12:1,2015-12-04T06:05:00Z,27.4980,-83.7220,15.97,1111122 
COMPS,ioos:station:USF.COMPS:C12:1,2015-12-04T06:35:00Z,27.4980,-83.7220,15.07,1111122 
COMPS,ioos:station:USF.COMPS:C12:1,2015-12-04T07:05:00Z,27.4980,-83.7220,15.08,1111122 
COMPS,ioos:station:USF.COMPS:C12:1,2015-12-04T07:35:00Z,27.4980,-83.7220,14.57,1111122 
COMPS,ioos:station:USF.COMPS:C12:1,2015-12-04T08:05:00Z,27.4980,-83.7220,15.01,1111122 
COMPS,ioos:station:USF.COMPS:C12:1,2015-12-04T08:35:00Z,27.4980,-83.7220,14.98,1111122 
COMPS,ioos:station:USF.COMPS:C12:1,2015-12-04T09:05:00Z,27.4980,-83.7220,15.37,1111122 
COMPS,ioos:station:USF.COMPS:C12:1,2015-12-04T09:35:00Z,27.4980,-83.7220,15.62,1111122 
COMPS,ioos:station:USF.COMPS:C12:1,2015-12-04T10:05:00Z,27.4980,-83.7220,15.46,1111122 
COMPS,ioos:station:USF.COMPS:C12:1,2015-12-04T10:35:00Z,27.4980,-83.7220,15.68,1111122 
COMPS,ioos:station:USF.COMPS:C12:1,2015-12-04T11:05:00Z,27.4980,-83.7220,15.28,1111122 
COMPS,ioos:station:USF.COMPS:C12:1,2015-12-04T11:35:00Z,27.4980,-83.7220,14.9,1111122 
COMPS,ioos:station:USF.COMPS:C12:1,2015-12-04T12:05:00Z,27.4980,-83.7220,15.14,1111122 
COMPS,ioos:station:USF.COMPS:C12:1,2015-12-04T12:35:00Z,27.4980,-83.7220,14.74,1111122 
COMPS,ioos:station:USF.COMPS:C12:1,2015-12-04T13:05:00Z,27.4980,-83.7220,14.44,1111122 
COMPS,ioos:station:USF.COMPS:C12:1,2015-12-04T13:35:00Z,27.4980,-83.7220,13.86,1111122 
COMPS,ioos:station:USF.COMPS:C12:1,2015-12-04T14:05:00Z,27.4980,-83.7220,14.09,1111122 
COMPS,ioos:station:USF.COMPS:C12:1,2015-12-04T14:35:00Z,27.4980,-83.7220,14.42,1111122 
COMPS,ioos:station:USF.COMPS:C12:1,2015-12-04T15:05:00Z,27.4980,-83.7220,14.33,1111122 
COMPS,ioos:station:USF.COMPS:C12:1,2015-12-04T15:35:00Z,27.4980,-83.7220,14.45,1111122 
COMPS,ioos:station:USF.COMPS:C12:1,2015-12-04T16:05:00Z,27.4980,-83.7220,14.61,1111122 
COMPS,ioos:station:USF.COMPS:C12:1,2015-12-04T16:35:00Z,27.4980,-83.7220,15.05,1111122 
COMPS,ioos:station:USF.COMPS:C12:1,2015-12-04T17:05:00Z,27.4980,-83.7220,15.16,1111122 
COMPS,ioos:station:USF.COMPS:C12:1,2015-12-04T17:35:00Z,27.4980,-83.7220,14.66,1111122 
COMPS,ioos:station:USF.COMPS:C12:1,2015-12-04T18:05:00Z,27.4980,-83.7220,14.4,1111122 
COMPS,ioos:station:USF.COMPS:C12:1,2015-12-04T18:35:00Z,27.4980,-83.7220,15.14,1111122 
COMPS,ioos:station:USF.COMPS:C12:1,2015-12-04T19:05:00Z,27.4980,-83.7220,15.17,1111122 
COMPS,ioos:station:USF.COMPS:C12:1,2015-12-04T19:35:00Z,27.4980,-83.7220,16.19,1111122 
COMPS,ioos:station:USF.COMPS:C12:1,2015-12-04T20:05:00Z,27.4980,-83.7220,15.74,1111122 
COMPS,ioos:station:USF.COMPS:C12:1,2015-12-04T20:35:00Z,27.4980,-83.7220,15.83,1111122 
COMPS,ioos:station:USF.COMPS:C12:1,2015-12-04T21:05:00Z,27.4980,-83.7220,16.49,1111122 
COMPS,ioos:station:USF.COMPS:C12:1,2015-12-04T21:35:00Z,27.4980,-83.7220,16.42,1111122 
COMPS,ioos:station:USF.COMPS:C12:1,2015-12-04T22:05:00Z,27.4980,-83.7220,16.29,1111122 
COMPS,ioos:station:USF.COMPS:C12:1,2015-12-04T22:35:00Z,27.4980,-83.7220,16.22,1111122 
COMPS,ioos:station:USF.COMPS:C12:1,2015-12-05T05:05:00Z,27.4980,-83.7220,16.08,1111122 
COMPS,ioos:station:USF.COMPS:C12:1,2015-12-05T05:35:00Z,27.4980,-83.7220,16.76,1111122 
COMPS,ioos:station:USF.COMPS:C12:1,2015-12-05T06:05:00Z,27.4980,-83.7220,15.99,1111122 
COMPS,ioos:station:USF.COMPS:C12:1,2015-12-05T06:35:00Z,27.4980,-83.7220,16.32,1111122 
COMPS,ioos:station:USF.COMPS:C12:1,2015-12-05T07:05:00Z,27.4980,-83.7220,17.1,1111122 
COMPS,ioos:station:USF.COMPS:C12:1,2015-12-05T07:35:00Z,27.4980,-83.7220,16.13,1111122 
COMPS,ioos:station:USF.COMPS:C12:1,2015-12-05T08:05:00Z,27.4980,-83.7220,16.51,1111122 
COMPS,ioos:station:USF.COMPS:C12:1,2015-12-05T08:35:00Z,27.4980,-83.7220,16.35,1111122 
COMPS,ioos:station:USF.COMPS:C12:1,2015-12-05T09:05:00Z,27.4980,-83.7220,16.49,1111122 
COMPS,ioos:station:USF.COMPS:C12:1,2015-12-05T09:35:00Z,27.4980,-83.7220,17.31,1111122 
COMPS,ioos:station:USF.COMPS:C12:1,2015-12-05T10:05:00Z,27.4980,-83.7220,17.54,1111122 
COMPS,ioos:station:USF.COMPS:C12:1,2015-12-05T10:35:00Z,27.4980,-83.7220,16.48,1111122 
COMPS,ioos:station:USF.COMPS:C12:1,2015-12-05T11:05:00Z,27.4980,-83.7220,16.83,1111122 
COMPS,ioos:station:USF.COMPS:C12:1,2015-12-05T11:35:00Z,27.4980,-83.7220,16.69,1111122 
COMPS,ioos:station:USF.COMPS:C12:1,2015-12-05T12:05:00Z,27.4980,-83.7220,18.06,1111122 
COMPS,ioos:station:USF.COMPS:C12:1,2015-12-05T12:35:00Z,27.4980,-83.7220,16.81,1111122 
COMPS,ioos:station:USF.COMPS:C12:1,2015-12-05T13:05:00Z,27.4980,-83.7220,16.77,1111122 
COMPS,ioos:station:USF.COMPS:C12:1,2015-12-05T13:35:00Z,27.4980,-83.7220,17.35,1111122 
COMPS,ioos:station:USF.COMPS:C12:1,2015-12-05T14:05:00Z,27.4980,-83.7220,17.42,1111122 
COMPS,ioos:station:USF.COMPS:C12:1,2015-12-05T14:35:00Z,27.4980,-83.7220,17.11,1111122 
COMPS,ioos:station:USF.COMPS:C12:1,2015-12-05T15:05:00Z,27.4980,-83.7220,17.29,1111122 
COMPS,ioos:station:USF.COMPS:C12:1,2015-12-05T15:35:00Z,27.4980,-83.7220,17.87,1111122 
COMPS,ioos:station:USF.COMPS:C12:1,2015-12-05T16:05:00Z,27.4980,-83.7220,19.25,1111122 
COMPS,ioos:station:USF.COMPS:C12:1,2015-12-05T16:35:00Z,27.4980,-83.7220,19.12,1111122 
COMPS,ioos:station:USF.COMPS:C12:1,2015-12-05T17:05:00Z,27.4980,-83.7220,19.25,1111122 
COMPS,ioos:station:USF.COMPS:C12:1,2015-12-05T17:35:00Z,27.4980,-83.7220,18.31,1111122 
COMPS,ioos:station:USF.COMPS:C12:1,2015-12-05T18:05:00Z,27.4980,-83.7220,17.49,1111122 
COMPS,ioos:station:USF.COMPS:C12:1,2015-12-05T18:35:00Z,27.4980,-83.7220,19.1,1111122 
COMPS,ioos:station:USF.COMPS:C12:1,2015-12-05T19:05:00Z,27.4980,-83.7220,17.97,1111122 
COMPS,ioos:station:USF.COMPS:C12:1,2015-12-05T19:35:00Z,27.4980,-83.7220,18.52,1111122 
COMPS,ioos:station:USF.COMPS:C12:1,2015-12-05T20:05:00Z,27.4980,-83.7220,17.93,1111122 
COMPS,ioos:station:USF.COMPS:C12:1,2015-12-05T20:35:00Z,27.4980,-83.7220,18.38,1111122 
COMPS,ioos:station:USF.COMPS:C12:1,2015-12-05T21:05:00Z,27.4980,-83.7220,18.93,1111122 
COMPS,ioos:station:USF.COMPS:C12:1,2015-12-05T21:35:00Z,27.4980,-83.7220,18.17,1111122 
COMPS,ioos:station:USF.COMPS:C12:1,2015-12-05T22:05:00Z,27.4980,-83.7220,19.74,1111122 
COMPS,ioos:station:USF.COMPS:C12:1,2015-12-05T22:35:00Z,27.4980,-83.7220,19.16,1111122 
COMPS,ioos:station:USF.COMPS:C12:1,2015-12-05T23:05:00Z,27.4980,-83.7220,19.79,1111122 
COMPS,ioos:station:USF.COMPS:C12:1,2015-12-05T23:35:00Z,27.4980,-83.7220,19.65,1111122 
COMPS,ioos:station:USF.COMPS:C12:1,2015-12-06T00:05:00Z,27.4980,-83.7220,21.83,1111122 
COMPS,ioos:station:USF.COMPS:C12:1,2015-12-06T00:35:00Z,27.4980,-83.7220,21.83,1111122 
COMPS,ioos:station:USF.COMPS:C12:1,2015-12-06T01:05:00Z,27.4980,-83.7220,21.67,1111122 
COMPS,ioos:station:USF.COMPS:C12:1,2015-12-06T01:35:00Z,27.4980,-83.7220,21.0,1111122 
COMPS,ioos:station:USF.COMPS:C12:1,2015-12-06T02:05:00Z,27.4980,-83.7220,21.09,1111122 
COMPS,ioos:station:USF.COMPS:C12:1,2015-12-06T02:35:00Z,27.4980,-83.7220,20.92,1111122 
COMPS,ioos:station:USF.COMPS:C12:1,2015-12-06T03:05:00Z,27.4980,-83.7220,18.85,1111122 
COMPS,ioos:station:USF.COMPS:C12:1,2015-12-06T03:35:00Z,27.4980,-83.7220,19.26,1111122 
COMPS,ioos:station:USF.COMPS:C12:1,2015-12-06T05:05:00Z,27.4980,-83.7220,19.88,1111122 
COMPS,ioos:station:USF.COMPS:C12:1,2015-12-06T05:35:00Z,27.4980,-83.7220,20.88,1111122 
COMPS,ioos:station:USF.COMPS:C12:1,2015-12-06T06:05:00Z,27.4980,-83.7220,16.99,1111122 
COMPS,ioos:station:USF.COMPS:C12:1,2015-12-06T06:35:00Z,27.4980,-83.7220,16.96,1111122 
COMPS,ioos:station:USF.COMPS:C12:1,2015-12-06T07:05:00Z,27.4980,-83.7220,16.72,1111122 
COMPS,ioos:station:USF.COMPS:C12:1,2015-12-06T07:35:00Z,27.4980,-83.7220,16.95,1111122 
COMPS,ioos:station:USF.COMPS:C12:1,2015-12-06T08:05:00Z,27.4980,-83.7220,16.95,1111122 
COMPS,ioos:station:USF.COMPS:C12:1,2015-12-06T08:35:00Z,27.4980,-83.7220,16.66,1111122 
COMPS,ioos:station:USF.COMPS:C12:1,2015-12-06T09:05:00Z,27.4980,-83.7220,16.87,1111122 
COMPS,ioos:station:USF.COMPS:C12:1,2015-12-06T09:35:00Z,27.4980,-83.7220,16.84,1111122 
COMPS,ioos:station:USF.COMPS:C12:1,2015-12-06T10:05:00Z,27.4980,-83.7220,16.87,1111122 
COMPS,ioos:station:USF.COMPS:C12:1,2015-12-06T10:35:00Z,27.4980,-83.7220,16.85,1111122 
COMPS,ioos:station:USF.COMPS:C12:1,2015-12-06T11:05:00Z,27.4980,-83.7220,16.75,1111122 
COMPS,ioos:station:USF.COMPS:C12:1,2015-12-06T11:35:00Z,27.4980,-83.7220,16.74,1111122 
COMPS,ioos:station:USF.COMPS:C12:1,2015-12-06T12:05:00Z,27.4980,-83.7220,16.85,1111122 
COMPS,ioos:station:USF.COMPS:C12:1,2015-12-06T12:35:00Z,27.4980,-83.7220,16.62,1111122 
COMPS,ioos:station:USF.COMPS:C12:1,2015-12-06T13:05:00Z,27.4980,-83.7220,16.74,1111122 
COMPS,ioos:station:USF.COMPS:C12:1,2015-12-06T13:35:00Z,27.4980,-83.7220,16.76,1111122 
COMPS,ioos:station:USF.COMPS:C12:1,2015-12-06T14:05:00Z,27.4980,-83.7220,16.77,1111122 
COMPS,ioos:station:USF.COMPS:C12:1,2015-12-06T14:35:00Z,27.4980,-83.7220,16.66,1111122 
COMPS,ioos:station:USF.COMPS:C12:1,2015-12-06T15:05:00Z,27.4980,-83.7220,16.45,1111122 
COMPS,ioos:station:USF.COMPS:C12:1,2015-12-06T15:35:00Z,27.4980,-83.7220,16.66,1111122 
COMPS,ioos:station:USF.COMPS:C12:1,2015-12-06T16:05:00Z,27.4980,-83.7220,17.07,1111122 
COMPS,ioos:station:USF.COMPS:C12:1,2015-12-06T16:35:00Z,27.4980,-83.7220,16.97,1111122 
COMPS,ioos:station:USF.COMPS:C12:1,2015-12-06T17:05:00Z,27.4980,-83.7220,17.2,1111122 
COMPS,ioos:station:USF.COMPS:C12:1,2015-12-06T17:35:00Z,27.4980,-83.7220,17.23,1111122 
COMPS,ioos:station:USF.COMPS:C12:1,2015-12-06T18:05:00Z,27.4980,-83.7220,17.06,1111122 
COMPS,ioos:station:USF.COMPS:C12:1,2015-12-06T18:35:00Z,27.4980,-83.7220,17.21,1111122 
COMPS,ioos:station:USF.COMPS:C12:1,2015-12-06T19:05:00Z,27.4980,-83.7220,17.35,1111122 
COMPS,ioos:station:USF.COMPS:C12:1,2015-12-06T19:35:00Z,27.4980,-83.7220,17.43,1111122 
COMPS,ioos:station:USF.COMPS:C12:1,2015-12-06T20:05:00Z,27.4980,-83.7220,17.55,1111122 
COMPS,ioos:station:USF.COMPS:C12:1,2015-12-06T20:35:00Z,27.4980,-83.7220,17.53,1111122 
COMPS,ioos:station:USF.COMPS:C12:1,2015-12-06T21:05:00Z,27.4980,-83.7220,17.77,1111122 
COMPS,ioos:station:USF.COMPS:C12:1,2015-12-06T21:35:00Z,27.4980,-83.7220,18.13,1111122 
COMPS,ioos:station:USF.COMPS:C12:1,2015-12-06T22:05:00Z,27.4980,-83.7220,18.06,1111122 
COMPS,ioos:station:USF.COMPS:C12:1,2015-12-06T22:35:00Z,27.4980,-83.7220,18.19,1111122 
COMPS,ioos:station:USF.COMPS:C12:1,2015-12-06T23:05:00Z,27.4980,-83.7220,18.12,1111122 
COMPS,ioos:station:USF.COMPS:C12:1,2015-12-06T23:35:00Z,27.4980,-83.7220,18.19,1111122 
COMPS,ioos:station:USF.COMPS:C12:1,2015-12-07T00:05:00Z,27.4980,-83.7220,18.39,1111122 
COMPS,ioos:station:USF.COMPS:C12:1,2015-12-07T00:35:00Z,27.4980,-83.7220,18.41,1111122 
COMPS,ioos:station:USF.COMPS:C12:1,2015-12-07T01:05:00Z,27.4980,-83.7220,18.35,1111122 
COMPS,ioos:station:USF.COMPS:C12:1,2015-12-07T01:35:00Z,27.4980,-83.7220,18.36,1111122 
COMPS,ioos:station:USF.COMPS:C12:1,2015-12-07T02:05:00Z,27.4980,-83.7220,18.21,1111122 
COMPS,ioos:station:USF.COMPS:C12:1,2015-12-07T02:35:00Z,27.4980,-83.7220,17.63,1111122 
COMPS,ioos:station:USF.COMPS:C12:1,2015-12-07T03:05:00Z,27.4980,-83.7220,17.82,1111122 
COMPS,ioos:station:USF.COMPS:C12:1,2015-12-07T03:35:00Z,27.4980,-83.7220,17.76,1111122 
COMPS,ioos:station:USF.COMPS:C12:1,2015-12-07T05:05:00Z,27.4980,-83.7220,17.1,1111122 
COMPS,ioos:station:USF.COMPS:C12:1,2015-12-07T05:35:00Z,27.4980,-83.7220,17.42,1111122 
COMPS,ioos:station:USF.COMPS:C12:1,2015-12-07T06:05:00Z,27.4980,-83.7220,17.03,1111122 
COMPS,ioos:station:USF.COMPS:C12:1,2015-12-07T06:35:00Z,27.4980,-83.7220,16.97,1111122 
COMPS,ioos:station:USF.COMPS:C12:1,2015-12-07T07:05:00Z,27.4980,-83.7220,16.86,1111122 
COMPS,ioos:station:USF.COMPS:C12:1,2015-12-07T07:35:00Z,27.4980,-83.7220,16.83,1111122 
COMPS,ioos:station:USF.COMPS:C12:1,2015-12-07T08:05:00Z,27.4980,-83.7220,16.92,1111122 
COMPS,ioos:station:USF.COMPS:C12:1,2015-12-07T08:35:00Z,27.4980,-83.7220,17.17,1111122 
COMPS,ioos:station:USF.COMPS:C12:1,2015-12-07T09:05:00Z,27.4980,-83.7220,16.7,1111122 
COMPS,ioos:station:USF.COMPS:C12:1,2015-12-07T09:35:00Z,27.4980,-83.7220,16.7,1111122 
COMPS,ioos:station:USF.COMPS:C12:1,2015-12-07T10:05:00Z,27.4980,-83.7220,16.77,1111122 
COMPS,ioos:station:USF.COMPS:C12:1,2015-12-07T10:35:00Z,27.4980,-83.7220,16.03,1111122 
COMPS,ioos:station:USF.COMPS:C12:1,2015-12-07T11:05:00Z,27.4980,-83.7220,16.15,1111122 
COMPS,ioos:station:USF.COMPS:C12:1,2015-12-07T11:35:00Z,27.4980,-83.7220,16.16,1111122 
COMPS,ioos:station:USF.COMPS:C12:1,2015-12-07T12:05:00Z,27.4980,-83.7220,16.68,1111122 
COMPS,ioos:station:USF.COMPS:C12:1,2015-12-07T12:35:00Z,27.4980,-83.7220,16.3,1111122 
COMPS,ioos:station:USF.COMPS:C12:1,2015-12-07T13:05:00Z,27.4980,-83.7220,16.71,1111122 
COMPS,ioos:station:USF.COMPS:C12:1,2015-12-07T13:35:00Z,27.4980,-83.7220,16.56,1111122 